Find Sedna-2

NORAD ID: 63153 Int'l Des: 2025-009 Owner: CLAAC Country: UK operational
LEOCIRCULARRETROGRADESSO

当前视图

正在加载3D地球...

关于 Sedna-2

正在加载描述...

即将过境

Passes for default location (London). Set your location on the main map for personalized predictions.

高度历史

Loading altitude history...

两行轨道根数

1 63153U 25009DQ 26149.45348660 .00009331 00000-0 55179-3 0 9998
2 63153 97.4549 223.4546 0010716 123.9533 236.2718 15.11627106 75297
Epoch: May 29, 2026 • Age: 17 hours

当前状态

高度 536.7 km
速度 7.59 km/s
星下点 -18.45°S, 99.31°E
发射日期 Jan 14, 2025
运行时间 1.3 years
类型 other

技术详情

分类 Payload
质量 10.00 kg
干质量 10.00 kg
总质量 10.00 kg
长度 0.40 m
直径 0.10 m
跨度 0.40 m
形状 Box
制造商 CLAAC
平台类型 Cubesat 1x4U
阶段状态 In Orbit
所有者/国家 CLAAC/UK

Most Searched